{"data":{"norad_id":43169,"epoch":"2026-05-25T02:44:28.321152Z","epoch_age_seconds":58417,"freshness":"FRESH","line1":"1 43169U 18011A   26145.11421668  .00001893  00000+0  14803-3 0  9990","line2":"2 43169  34.9964 302.1324 0002722 216.0173 144.0351 15.00884856454655","mean_motion":15.00884856,"eccentricity":0.0002722,"inclination_deg":34.9964,"raan_deg":302.1324,"arg_perigee_deg":216.0173,"mean_anomaly_deg":144.0351,"bstar":0.00014803,"rev_number":45465,"period_min":95.943402603031,"perigee_km":562.27672398061,"apogee_km":566.0561139619,"semimajor_km":6942.3034189713,"source":"CELESTRAK","updated_at":"2026-05-25T13:37:55.786376Z"}}